EN

Hourly Weather Toulouse

Today, 11 April, Sunday

Time Temperature Precipitation Wind Pressure Humidity
00:00 +12°C° 0 mm 5 mps 744 mmHg 88%
01:00 +10°C° 0 mm 5 mps 744 mmHg 89%
02:00 +11°C° 0 mm 4 mps 744 mmHg 89%
03:00 +10°C° 0 mm 4 mps 744 mmHg 90%
04:00 +10°C° 0 mm 4 mps 744 mmHg 89%
05:00 +10°C° 0 mm 3 mps 745 mmHg 88%
06:00 +10°C° 0 mm 3 mps 745 mmHg 87%
07:00 +11°C° 0.1 mm 3 mps 746 mmHg 88%
08:00 +11°C° 0.1 mm 4 mps 746 mmHg 89%
09:00 +11°C° 0.1 mm 4 mps 746 mmHg 90%
10:00 +11°C° 0.3 mm 4 mps 747 mmHg 91%
11:00 +11°C° 0.3 mm 3 mps 747 mmHg 91%
12:00 +10°C° 0.3 mm 3 mps 748 mmHg 92%
13:00 +10°C° 0.9 mm 4 mps 748 mmHg 91%
14:00 +10°C° 0.9 mm 4 mps 749 mmHg 90%
15:00 +8°C° 0.9 mm 5 mps 749 mmHg 90%
16:00 +8°C° 0.7 mm 4 mps 750 mmHg 89%
17:00 +8°C° 0.7 mm 4 mps 750 mmHg 88%
18:00 +7°C° 0.7 mm 4 mps 751 mmHg 87%
19:00 +7°C° 0.1 mm 4 mps 752 mmHg 88%
20:00 +6°C° 0.1 mm 5 mps 752 mmHg 88%
21:00 +6°C° 0.1 mm 5 mps 753 mmHg 89%
22:00 +5°C° 0.1 mm 5 mps 753 mmHg 89%
23:00 +5°C° 0.1 mm 5 mps 754 mmHg 90%

Tomorrow, 12 April, Monday

Time Temperature Precipitation Wind Pressure Humidity
00:00 +5°C° 0.1 mm 4 mps 754 mmHg 90%
01:00 +4°C° 0.1 mm 4 mps 755 mmHg 91%
02:00 +3°C° 0.1 mm 4 mps 755 mmHg 91%
03:00 +3°C° 0.1 mm 4 mps 755 mmHg 91%
04:00 +3°C° 0 mm 4 mps 755 mmHg 91%
05:00 +2°C° 0 mm 5 mps 756 mmHg 91%
06:00 +2°C° 0 mm 5 mps 756 mmHg 91%
07:00 +2°C° 0 mm 5 mps 757 mmHg 88%
08:00 +3°C° 0 mm 5 mps 757 mmHg 86%
09:00 +5°C° 0 mm 5 mps 758 mmHg 83%
10:00 +5°C° 0 mm 5 mps 758 mmHg 78%
11:00 +6°C° 0 mm 5 mps 758 mmHg 73%
12:00 +7°C° 0 mm 5 mps 758 mmHg 68%
13:00 +8°C° 0 mm 5 mps 757 mmHg 61%
14:00 +10°C° 0 mm 5 mps 757 mmHg 53%
15:00 +12°C° 0 mm 5 mps 756 mmHg 46%
16:00 +11°C° 0 mm 4 mps 756 mmHg 51%
17:00 +10°C° 0 mm 4 mps 757 mmHg 56%
18:00 +8°C° 0 mm 4 mps 757 mmHg 61%
19:00 +8°C° 0 mm 3 mps 757 mmHg 64%
20:00 +5°C° 0 mm 3 mps 758 mmHg 66%
21:00 +4°C° 0 mm 3 mps 758 mmHg 69%
22:00 +4°C° 0 mm 2 mps 758 mmHg 70%
23:00 +4°C° 0 mm 2 mps 759 mmHg 71%

Day after tomorrow, 13 April, Tuesday

Time Temperature Precipitation Wind Pressure Humidity
00:00 +3°C° 0 mm 2 mps 759 mmHg 72%
01:00 +4°C° 0 mm 1 mps 759 mmHg 74%
02:00 +3°C° 0 mm 1 mps 758 mmHg 75%
03:00 +3°C° 0 mm 1 mps 758 mmHg 76%
04:00 +3°C° 0 mm 1 mps 758 mmHg 76%
05:00 +3°C° 0 mm 1 mps 758 mmHg 76%
06:00 +3°C° 0 mm 1 mps 759 mmHg 76%
07:00 +5°C° 0 mm 1 mps 759 mmHg 68%
08:00 +7°C° 0 mm 2 mps 759 mmHg 60%
09:00 +9°C° 0 mm 2 mps 759 mmHg 52%
10:00 +10°C° 0 mm 3 mps 758 mmHg 49%
11:00 +12°C° 0 mm 3 mps 758 mmHg 46%
12:00 +13°C° 0 mm 3 mps 757 mmHg 44%
13:00 +13°C° 0 mm 3 mps 757 mmHg 43%
14:00 +13°C° 0 mm 3 mps 756 mmHg 43%
15:00 +14°C° 0 mm 3 mps 756 mmHg 43%
16:00 +13°C° 0 mm 3 mps 755 mmHg 48%
17:00 +12°C° 0 mm 2 mps 755 mmHg 54%
18:00 +10°C° 0 mm 2 mps 755 mmHg 60%
19:00 +9°C° 0 mm 2 mps 755 mmHg 61%
20:00 +9°C° 0 mm 1 mps 755 mmHg 61%
21:00 +8°C° 0 mm 1 mps 755 mmHg 61%
22:00 +7°C° 0 mm 1 mps 755 mmHg 62%
23:00 +6°C° 0 mm 1 mps 755 mmHg 63%

14 April, Wednesday

Time Temperature Precipitation Wind Pressure Humidity
00:00 +5°C° 0 mm 1 mps 755 mmHg 63%
01:00 +5°C° 0 mm 1 mps 755 mmHg 64%
02:00 +4°C° 0 mm 1 mps 755 mmHg 65%
03:00 +3°C° 0 mm 1 mps 754 mmHg 66%
04:00 +3°C° 0 mm 1 mps 754 mmHg 66%
05:00 +3°C° 0 mm 1 mps 754 mmHg 66%
06:00 +3°C° 0 mm 1 mps 754 mmHg 66%
07:00 +6°C° 0 mm 1 mps 754 mmHg 60%
08:00 +8°C° 0 mm 1 mps 754 mmHg 53%
09:00 +9°C° 0 mm 2 mps 754 mmHg 47%
10:00 +12°C° 0 mm 2 mps 754 mmHg 44%
11:00 +13°C° 0 mm 2 mps 753 mmHg 40%
12:00 +15°C° 0 mm 2 mps 753 mmHg 37%
13:00 +15°C° 0 mm 2 mps 752 mmHg 36%
14:00 +16°C° 0 mm 2 mps 752 mmHg 36%
15:00 +16°C° 0 mm 2 mps 752 mmHg 35%
16:00 +15°C° 0 mm 2 mps 751 mmHg 42%
17:00 +13°C° 0 mm 2 mps 751 mmHg 49%
18:00 +12°C° 0 mm 2 mps 751 mmHg 56%
19:00 +10°C° 0 mm 2 mps 751 mmHg 57%
20:00 +8°C° 0 mm 2 mps 752 mmHg 59%
21:00 +7°C° 0 mm 2 mps 752 mmHg 60%
22:00 +6°C° 0 mm 2 mps 752 mmHg 62%
23:00 +5°C° 0 mm 2 mps 752 mmHg 64%

15 April, Thursday

Time Temperature Precipitation Wind Pressure Humidity
00:00 +4°C° 0 mm 2 mps 752 mmHg 65%
01:00 +5°C° 0 mm 1 mps 752 mmHg 67%
02:00 +4°C° 0 mm 1 mps 752 mmHg 68%
03:00 +3°C° 0 mm 1 mps 752 mmHg 69%
04:00 +3°C° 0 mm 1 mps 752 mmHg 70%
05:00 +3°C° 0 mm 1 mps 752 mmHg 70%
06:00 +3°C° 0 mm 1 mps 753 mmHg 71%
07:00 +6°C° 0 mm 1 mps 753 mmHg 64%
08:00 +8°C° 0 mm 1 mps 753 mmHg 58%
09:00 +10°C° 0 mm 2 mps 753 mmHg 51%
10:00 +12°C° 0 mm 2 mps 752 mmHg 46%
11:00 +14°C° 0 mm 2 mps 752 mmHg 41%
12:00 +15°C° 0 mm 2 mps 752 mmHg 36%
13:00 +15°C° 0 mm 2 mps 751 mmHg 34%
14:00 +16°C° 0 mm 2 mps 751 mmHg 33%
15:00 +16°C° 0 mm 2 mps 750 mmHg 31%
16:00 +15°C° 0 mm 2 mps 750 mmHg 38%
17:00 +14°C° 0 mm 2 mps 750 mmHg 44%
18:00 +12°C° 0 mm 2 mps 750 mmHg 51%
19:00 +10°C° 0 mm 2 mps 750 mmHg 53%
20:00 +8°C° 0 mm 2 mps 750 mmHg 55%
21:00 +7°C° 0 mm 1 mps 750 mmHg 57%
22:00 +7°C° 0 mm 1 mps 750 mmHg 60%
23:00 +5°C° 0 mm 2 mps 750 mmHg 62%

16 April, Friday

Time Temperature Precipitation Wind Pressure Humidity
00:00 +4°C° 0 mm 2 mps 750 mmHg 65%
01:00 +5°C° 0 mm 1 mps 750 mmHg 67%
02:00 +4°C° 0 mm 1 mps 750 mmHg 68%
03:00 +4°C° 0 mm 1 mps 750 mmHg 70%
04:00 +4°C° 0 mm 1 mps 750 mmHg 71%
05:00 +4°C° 0 mm 1 mps 750 mmHg 71%
06:00 +4°C° 0 mm 1 mps 750 mmHg 72%
07:00 +6°C° 0 mm 1 mps 750 mmHg 65%
08:00 +8°C° 0 mm 1 mps 750 mmHg 59%
09:00 +9°C° 0 mm 2 mps 750 mmHg 53%
10:00 +12°C° 0 mm 2 mps 750 mmHg 50%
11:00 +13°C° 0 mm 2 mps 750 mmHg 48%
12:00 +14°C° 0 mm 2 mps 749 mmHg 46%
13:00 +14°C° 0 mm 2 mps 749 mmHg 45%
14:00 +15°C° 0 mm 2 mps 749 mmHg 43%
15:00 +15°C° 0 mm 2 mps 748 mmHg 42%
16:00 +14°C° 0 mm 2 mps 748 mmHg 47%
17:00 +13°C° 0 mm 2 mps 748 mmHg 53%
18:00 +12°C° 0 mm 2 mps 748 mmHg 58%
19:00 +10°C° 0.3 mm 2 mps 749 mmHg 66%
20:00 +9°C° 0.3 mm 3 mps 749 mmHg 73%
21:00 +8°C° 0.3 mm 3 mps 750 mmHg 80%
22:00 +7°C° 0.2 mm 2 mps 750 mmHg 83%
23:00 +6°C° 0.2 mm 2 mps 750 mmHg 87%
Show more

We Need Your Consent

Meteoprog and our Service Providers may store and access personal data such as cookies, device identifiers or other similar technologies on your device and process such data to personalise content and ads, as well as provide social media features and to analyse the traffic.

  • Store and/or access information on your device

    Cookies, device identifiers or other information can be stored or accessed on your device for the purposes indicated above.

  • Personalised ads and content, ad and content measurement, audience insights, and products development

    Ads and content can be personalised based on a profile. More data can be added to better personalise ads and content. Ad and content performance can be measured. Insights about the audience who saw the ads and content can be derived. Such data can be used to develop or improve user’s experience, systems and software.

By clicking ‘I Agree’ you will allow the use of indicated cookies, device identifiers, web beacons or other similar technologies. Your settings can be changed in the browser on your device.

For certain purposes, legitimate interests may be relied on, rather than consent. You can read more about this in our Privacy and Cookie Policy.